Theta_e
308 308 307 307 307 307 307 307 307 307 307 307 307 306 307 307 307 308 308 308 308 307 307 307 307 307 307 308 311 313 313 313 313 313 314 314 314 314 315 317 317 316 317 315 313 315 314 314 314 313 316 316 317 319 316 322 327 326 328 323 322 328 328 330 332 327 321 324 326 322 319 318 321 322 315 313 315 317 316 318 319 315 314 312 310 310 311 313
308 308 307 307 307 307 307 307 307 307 307 307 307 307 307 307 307 307 308 308 308 308 308 307 307 307 307 308 310 312 313 314 314 314 316 316 315 315 315 317 318 316 316 314 314 316 316 317 313 314 319 317 318 318 318 321 322 329 330 322 324 331 329 328 332 328 321 320 321 319 318 317 318 318 314 315 319 318 316 317 317 317 317 313 309 309 311 312
309 309 308 308 308 308 308 308 308 307 308 307 307 307 307 307 307 307 307 308 308 308 308 308 308 308 308 308 311 313 314 316 318 319 318 317 317 316 315 317 318 316 316 313 314 315 316 317 312 317 321 318 321 321 322 321 320 330 328 324 332 332 325 326 326 325 321 319 318 318 317 316 318 316 313 316 319 318 316 315 314 318 319 317 316 309 308 311
310 309 309 309 309 309 308 308 308 308 308 308 308 308 308 308 308 307 308 308 308 308 308 308 308 309 308 308 311 313 314 314 315 319 317 316 317 317 316 317 318 316 316 313 314 315 315 314 312 319 321 319 324 322 324 325 322 327 323 326 336 327 322 324 323 323 321 316 315 317 316 316 318 315 314 316 317 317 315 316 315 317 318 318 324 313 306 308
310 310 310 310 309 309 309 309 309 309 309 309 309 309 309 309 309 309 308 308 308 308 309 309 309 309 309 310 312 313 316 314 313 317 317 316 315 316 317 318 318 316 315 313 315 315 314 313 312 319 319 320 323 320 327 329 322 324 323 326 330 322 320 320 322 323 319 315 315 317 317 316 315 314 316 316 316 316 316 318 317 317 318 317 322 314 306 307
311 310 310 310 310 310 310 310 310 310 310 309 309 309 309 309 310 309 309 309 309 309 309 309 309 310 309 311 314 313 314 315 315 317 317 317 315 315 318 318 318 315 313 314 315 314 314 314 314 319 319 318 321 320 325 324 318 322 323 324 325 321 320 319 320 321 318 316 316 317 316 315 314 314 317 317 316 316 315 318 319 317 314 311 314 312 310 311
311 310 309 310 310 309 309 310 310 310 310 310 309 309 309 309 309 309 309 309 310 310 310 310 310 310 310 312 315 318 316 315 315 315 316 316 315 316 317 318 316 313 312 313 314 313 315 316 316 321 321 319 321 321 321 318 317 321 323 324 324 321 321 319 318 319 318 317 317 316 313 314 315 315 315 315 315 314 313 314 317 314 308 308 315 318 317 313
311 309 309 310 309 308 309 310 310 310 310 310 309 309 309 308 308 308 307 308 308 310 309 310 310 309 311 312 316 321 319 316 314 314 315 316 316 316 316 317 315 312 311 313 314 313 315 317 316 318 320 320 319 319 319 316 319 321 322 324 322 320 321 320 318 318 318 317 316 314 314 315 314 313 313 314 314 313 313 314 315 314 311 312 316 319 315 311
310 308 309 309 309 309 310 310 310 310 310 310 310 309 309 309 309 308 307 307 307 308 308 309 310 310 312 313 314 318 318 316 314 316 317 318 317 316 315 315 313 311 311 313 314 312 314 319 319 317 319 321 318 318 319 317 321 323 321 322 321 319 319 318 316 315 316 317 315 314 316 316 313 313 313 314 314 313 314 315 315 314 315 314 313 315 313 312
310 309 309 309 309 311 311 311 310 310 310 310 310 310 310 310 309 309 308 308 307 306 307 307 309 312 314 313 313 315 316 317 316 316 318 318 318 315 314 314 312 310 311 312 312 310 313 317 317 316 317 319 317 316 318 318 319 321 320 321 318 316 316 314 314 315 315 316 316 315 316 315 313 313 314 315 315 315 315 317 316 314 315 313 311 311 310 311
312 311 311 311 311 312 311 310 310 310 310 310 310 311 311 311 310 310 310 309 309 307 306 306 307 310 313 313 314 314 315 316 315 315 316 316 316 315 314 313 312 310 311 311 310 310 312 313 312 313 315 316 316 316 316 317 315 315 315 317 317 315 315 313 313 314 313 314 316 314 314 315 313 312 314 314 314 315 315 317 316 314 315 313 311 310 309 309
313 313 313 313 313 312 310 310 310 309 310 310 311 311 311 312 311 311 311 310 310 308 307 306 306 309 313 315 315 314 313 313 314 314 314 315 315 314 313 312 311 311 311 310 310 311 310 312 313 315 317 314 315 315 315 314 313 313 314 315 316 315 314 313 313 315 314 314 316 313 313 314 314 315 315 313 314 313 313 315 315 313 314 313 311 309 309 307
314 314 314 314 313 312 310 310 309 309 309 309 310 311 311 311 311 311 311 310 310 309 308 306 307 309 312 315 315 313 313 313 313 313 313 314 314 313 313 312 311 312 312 310 311 313 312 313 313 316 316 314 317 315 312 314 314 314 315 314 314 315 315 314 314 315 313 314 316 313 311 314 315 315 314 313 313 312 313 315 314 314 313 313 312 310 310 308
314 314 314 314 314 312 311 309 309 309 308 308 309 309 310 310 311 311 310 310 310 309 308 307 308 311 313 315 313 312 313 313 313 313 313 314 313 313 312 311 312 313 313 312 313 315 315 314 313 314 313 314 317 313 313 320 319 315 313 314 315 315 316 314 314 314 312 314 315 313 312 313 313 314 313 313 313 313 314 315 314 313 313 313 313 311 311 309
314 314 315 315 315 314 313 312 310 309 308 308 308 308 309 308 309 310 309 310 309 309 309 309 311 312 314 315 312 312 314 313 314 313 313 314 313 312 312 312 313 313 313 312 312 314 314 314 314 315 315 313 312 313 318 323 325 321 314 315 317 315 315 314 313 314 313 313 311 312 315 314 312 314 313 313 314 314 315 315 314 313 313 312 312 311 310 309
314 315 316 316 317 316 317 316 312 310 310 309 308 308 308 308 308 308 309 309 309 309 308 311 313 312 313 314 312 313 314 314 315 314 314 314 313 313 312 312 312 312 312 311 312 313 313 313 313 314 315 313 313 319 321 319 324 324 315 315 318 316 314 314 314 316 315 312 311 312 316 315 314 315 315 315 314 314 315 315 314 313 312 311 310 310 309 309
315 316 317 318 318 318 319 317 312 312 312 310 308 309 309 310 309 308 309 309 310 310 310 313 315 312 311 311 312 314 313 313 314 315 315 314 313 313 312 312 311 311 311 310 311 312 311 311 311 313 317 315 317 320 319 316 319 319 314 316 319 316 313 314 316 317 314 313 313 313 312 313 313 314 316 315 313 313 314 314 313 312 311 310 309 309 309 309
315 316 318 318 318 318 319 317 313 314 315 310 308 311 312 311 311 311 311 311 311 311 312 314 313 312 313 312 312 314 313 313 313 314 314 314 312 312 312 312 309 309 311 311 311 311 312 314 314 316 318 315 315 317 318 317 315 315 316 316 317 316 313 314 314 314 314 313 313 313 312 312 312 311 312 312 312 312 312 312 312 311 310 310 310 309 309 310
315 316 318 318 318 318 318 317 314 316 315 310 309 312 312 314 314 313 312 313 313 313 314 314 312 314 315 314 312 313 314 313 314 313 312 313 312 312 312 311 311 313 313 313 313 313 316 319 318 317 316 314 313 314 314 315 313 313 314 314 314 314 312 313 312 312 313 312 311 312 311 311 311 311 311 311 311 311 311 311 310 310 310 310 310 310 310 310
315 316 316 317 317 317 318 318 317 318 315 310 309 311 316 319 318 317 315 315 315 315 317 316 314 316 315 313 313 313 314 314 315 314 311 312 313 313 312 311 314 315 314 318 319 314 314 317 318 317 315 314 313 313 312 312 312 312 312 313 313 312 311 311 311 311 311 311 311 312 312 311 310 311 311 311 311 312 311 311 311 311 311 311 311 311 311 311
315 315 316 316 316 316 317 317 318 318 315 310 308 312 317 316 313 315 316 316 313 309 315 316 311 314 314 312 313 314 315 315 314 313 312 312 313 314 315 313 315 315 316 320 319 312 312 315 317 317 314 313 313 313 311 311 312 312 313 313 313 312 312 311 311 311 311 310 311 311 312 311 310 311 311 311 311 311 312 311 312 312 311 312 312 312 312 311
316 315 315 315 316 316 317 318 318 319 316 309 308 310 310 309 309 309 308 313 314 306 309 312 308 310 311 310 311 312 314 315 315 314 312 312 313 315 316 315 317 317 317 317 316 314 314 314 314 314 313 313 313 312 311 312 313 314 314 313 313 313 312 311 312 312 311 312 315 315 313 311 311 311 311 311 311 311 311 312 312 312 313 313 312 312 312 312
317 316 315 315 316 316 317 318 318 319 316 310 308 307 306 307 308 308 307 313 317 312 312 313 310 310 310 309 310 311 313 313 313 315 313 312 314 315 314 315 316 317 317 316 315 316 317 318 315 311 312 312 312 312 312 313 313 314 314 313 313 312 312 313 313 314 312 312 316 316 312 310 310 311 311 311 311 311 311 312 312 312 313 313 312 313 312 312
320 317 316 316 316 316 317 318 318 319 317 311 310 309 307 307 307 308 310 313 316 317 315 311 309 311 311 309 309 311 312 312 312 314 312 313 314 314 314 316 316 316 316 315 315 314 315 320 317 312 312 313 313 314 313 314 313 314 314 313 313 313 313 313 313 315 314 313 315 314 311 312 313 312 312 311 310 310 310 311 311 312 312 312 312 312 312 312
322 320 318 316 317 317 317 318 318 318 317 313 311 310 308 307 306 307 310 314 319 318 313 308 308 311 310 309 310 312 312 312 313 312 310 312 313 312 312 313 314 316 314 313 314 314 313 316 316 314 315 314 314 314 315 316 314 313 315 314 313 313 313 313 314 314 315 317 316 314 314 316 317 316 315 315 312 311 311 310 310 310 310 311 311 311 311 311
324 323 321 319 317 316 317 319 318 317 317 314 313 311 307 306 306 306 310 318 324 322 314 310 310 310 309 309 310 312 314 314 310 310 310 310 311 311 312 312 311 313 314 314 313 312 313 314 313 315 317 317 315 315 315 315 313 314 319 320 315 313 314 315 315 314 318 321 316 314 317 317 316 316 318 318 316 314 313 312 311 311 311 311 312 312 311 311
325 325 324 323 320 318 318 319 317 318 319 317 314 311 308 307 305 305 312 323 328 323 316 312 310 310 310 309 309 311 317 315 309 309 310 309 310 310 311 312 311 311 312 314 313 313 315 313 313 313 314 317 317 315 315 313 314 316 319 323 321 317 317 315 314 315 318 319 315 316 317 317 316 315 316 318 316 316 314 313 312 311 311 312 312 312 312 312
325 325 324 324 322 319 317 317 317 317 319 318 315 310 308 308 306 308 320 333 332 321 315 313 309 310 311 308 308 310 311 310 310 310 307 307 310 310 312 313 312 312 312 313 313 314 315 314 316 315 313 316 316 315 317 314 314 317 316 318 320 319 317 317 317 318 317 316 316 316 315 318 319 315 315 315 314 316 314 313 313 311 312 312 312 312 312 312
325 324 323 322 322 320 317 316 316 317 318 317 316 312 308 307 307 312 326 331 328 317 313 312 309 310 313 309 310 312 309 309 311 310 307 308 309 309 312 313 312 312 312 313 312 311 313 313 315 316 315 315 313 315 320 317 315 317 315 316 319 320 320 319 319 319 320 319 317 316 315 318 319 316 317 315 314 318 315 313 312 311 312 312 312 313 312 313
324 324 324 321 319 319 317 317 318 319 318 317 317 313 310 311 311 318 330 328 324 320 313 311 311 311 313 312 313 313 311 311 311 310 311 310 310 310 310 309 311 315 315 314 313 312 311 310 311 314 315 314 314 314 314 315 315 313 315 320 322 323 322 322 323 320 319 319 318 320 317 316 318 318 319 318 317 318 316 315 315 314 315 313 312 313 312 312
323 323 322 320 319 319 318 318 320 320 319 317 317 315 316 322 322 326 333 325 322 323 314 311 314 313 314 315 315 314 312 313 312 311 312 311 312 313 311 309 312 318 319 316 314 313 311 309 312 316 317 315 315 313 310 312 312 312 318 323 321 322 322 323 324 320 318 320 320 321 317 315 317 316 316 317 317 316 315 317 320 321 321 316 313 312 312 312
321 322 322 320 320 320 319 319 320 320 319 317 317 319 324 329 326 327 331 326 327 326 314 314 315 315 317 314 316 318 313 313 312 311 315 315 315 316 314 316 316 318 321 321 319 318 316 315 314 313 315 314 313 315 315 313 311 312 318 318 316 321 321 321 323 319 319 321 317 315 314 313 315 315 315 316 317 317 314 314 317 321 323 319 315 312 313 314
319 319 320 320 319 319 319 320 319 319 319 317 318 322 326 330 328 328 329 329 329 323 315 316 316 316 317 315 323 324 314 315 315 311 315 314 314 317 317 318 317 316 317 319 319 319 319 319 314 310 313 315 313 315 316 316 314 313 316 318 318 320 320 321 324 320 319 320 315 312 315 315 315 317 318 315 313 316 314 312 313 316 318 318 315 312 314 314
316 317 318 319 319 319 319 320 319 319 318 317 320 324 327 329 328 327 329 330 329 324 320 320 317 317 317 317 328 326 316 321 318 311 314 313 312 319 320 316 313 313 314 314 317 318 317 319 318 314 316 316 313 312 316 320 317 312 315 319 318 321 324 323 325 323 320 321 316 311 315 320 318 317 319 316 315 317 318 317 314 312 313 314 313 313 315 313
313 315 316 317 318 319 319 319 319 318 317 317 320 325 328 329 327 327 328 329 329 326 323 321 318 319 321 320 325 322 317 322 318 313 315 316 316 322 324 319 313 312 314 314 318 319 316 319 320 316 315 314 313 313 315 319 317 313 316 319 315 319 324 320 322 323 318 318 317 313 318 322 317 313 315 315 315 315 318 318 313 312 314 314 314 316 315 313
310 312 314 316 317 318 318 319 318 317 317 318 321 325 325 326 328 328 327 324 325 325 324 324 321 322 326 325 323 319 315 316 316 315 315 316 318 320 322 322 315 311 312 315 320 320 317 321 320 314 312 313 312 313 313 316 318 314 314 317 315 316 319 317 321 322 316 315 317 315 318 318 315 315 316 317 316 314 317 315 312 314 315 313 314 316 314 315
307 309 314 316 316 317 318 318 318 317 316 319 323 326 324 324 326 328 326 321 321 324 324 324 324 325 327 326 324 320 316 315 316 316 318 319 319 318 319 320 316 311 310 315 322 321 317 318 318 314 313 312 310 311 314 314 314 315 317 317 313 314 316 317 321 321 316 317 317 316 317 316 316 319 318 319 318 318 321 318 315 317 319 318 319 319 319 321
305 309 313 314 314 315 317 319 317 315 316 320 324 325 324 323 323 324 324 321 320 323 323 324 325 327 327 326 326 325 320 319 319 317 320 321 320 321 322 319 315 312 310 311 318 321 317 315 318 317 315 314 312 312 315 313 309 312 317 315 313 316 318 317 319 319 317 317 319 318 318 315 315 317 316 317 317 318 321 318 316 317 317 320 322 322 325 328
306 311 313 313 313 313 316 318 315 314 317 320 323 324 323 322 322 323 324 322 320 322 323 325 325 325 327 324 324 327 325 323 322 320 322 323 321 321 320 317 315 312 311 310 313 318 317 314 317 318 314 314 314 314 317 317 312 311 311 312 313 315 317 317 319 319 318 317 319 319 319 316 316 316 316 318 319 318 318 317 319 320 318 319 320 320 324 326
309 312 313 314 314 315 316 315 314 316 319 320 321 322 322 321 323 324 323 320 319 321 322 324 324 324 324 323 322 324 324 323 323 322 323 324 323 319 317 316 315 313 314 313 313 316 318 316 317 320 318 316 316 317 320 320 317 315 313 313 313 312 316 317 315 317 317 316 317 319 318 318 319 317 315 316 316 314 315 318 320 320 316 314 316 317 318 317
310 312 313 314 315 316 315 315 316 317 319 320 320 320 320 320 320 321 320 318 318 320 319 321 324 323 321 322 323 321 321 323 323 321 321 324 324 322 320 317 316 317 318 317 317 320 323 320 319 322 321 319 319 320 321 319 317 316 315 315 314 313 316 316 315 317 317 315 316 318 317 319 322 319 314 313 312 311 316 319 317 315 313 312 313 313 313 312
310 311 312 314 315 315 315 316 317 317 318 319 320 319 319 318 318 319 319 317 317 318 317 318 322 321 319 320 321 320 322 324 323 321 321 322 321 322 322 318 318 320 319 320 322 322 321 319 318 319 320 320 320 318 318 316 314 314 313 314 314 313 313 315 316 317 317 316 317 318 317 321 323 319 314 314 313 312 314 314 312 312 312 312 312 312 312 312
310 311 312 313 314 314 315 318 317 316 317 317 317 319 318 318 319 318 318 317 317 317 317 318 318 319 319 319 319 320 321 322 321 321 323 322 319 320 319 318 318 318 317 320 322 319 317 317 318 319 319 319 319 317 316 314 313 314 313 312 313 313 313 314 315 315 316 317 318 319 319 321 324 322 316 315 314 313 313 312 311 312 311 311 312 312 312 313
307 308 309 311 313 313 315 319 318 317 317 316 316 317 316 316 317 317 317 317 317 317 317 317 317 318 318 318 318 319 320 320 319 320 321 321 320 320 318 316 318 318 318 320 321 318 317 318 319 319 319 319 318 318 318 315 313 314 315 313 313 313 314 314 315 315 316 316 317 319 318 319 322 321 317 314 314 313 312 312 312 313 312 311 312 312 313 314
304 306 307 309 311 312 315 317 317 317 317 316 317 317 316 316 316 316 316 315 316 317 317 317 317 317 317 317 317 317 317 318 318 319 320 319 321 321 317 315 316 316 316 317 317 317 316 318 319 319 319 319 317 317 320 320 316 313 314 314 314 313 314 315 315 316 316 316 317 318 317 317 317 317 315 314 313 312 312 312 312 312 312 312 313 313 312 311
303 305 306 307 309 311 313 314 314 315 315 315 316 316 316 316 316 315 315 315 315 315 316 317 316 316 315 316 316 316 316 317 317 318 318 319 322 319 311 311 315 315 315 315 313 313 314 316 318 318 318 318 317 316 318 320 318 315 315 316 315 314 314 314 315 315 316 316 315 316 316 316 316 315 314 313 312 312 312 312 312 312 313 314 313 310 306 303
301 302 304 307 308 309 310 312 313 314 314 314 315 315 315 316 315 315 314 315 315 314 314 315 314 315 315 315 316 316 315 316 315 315 316 316 317 312 307 310 313 311 312 313 311 311 312 314 315 316 316 317 317 317 317 317 317 316 316 315 315 315 314 314 314 314 314 316 315 315 315 316 315 315 314 313 312 312 312 312 312 311 310 308 306 303 300 299
300 301 303 305 306 307 309 309 310 311 312 313 313 312 313 314 314 314 313 313 313 313 313 314 313 314 314 314 315 314 314 315 315 314 313 310 307 307 307 310 309 306 307 308 308 310 312 312 313 314 314 315 315 315 315 316 315 315 315 315 315 315 316 315 314 314 314 315 314 314 314 315 314 313 313 313 312 312 311 309 307 305 302 300 300 299 299 299
298 299 301 302 302 303 304 303 303 306 309 312 312 312 312 311 311 312 312 312 313 312 313 314 313 310 308 309 310 311 312 313 312 310 308 303 302 304 306 307 307 305 304 304 306 309 310 311 312 312 313 313 313 313 313 313 313 313 314 314 314 314 315 315 315 314 314 314 314 313 313 314 313 312 312 311 308 306 305 302 300 299 298 298 298 298 298 298
298 298 299 300 299 299 300 300 301 303 305 308 310 311 311 311 311 311 312 312 312 312 313 312 309 305 303 305 306 306 307 308 308 306 303 301 302 303 303 304 305 304 302 302 306 309 310 311 311 310 310 310 311 312 313 312 312 312 312 313 312 312 313 313 313 313 313 314 313 313 314 314 311 308 305 303 301 300 300 299 298 297 297 297 297 297 297 297
296 296 297 298 298 299 299 299 300 302 303 305 308 309 310 310 309 309 310 309 309 310 309 306 303 301 301 303 304 304 304 302 302 302 301 300 301 301 301 301 302 301 301 303 305 307 307 308 308 308 308 309 309 310 312 312 312 312 312 312 312 312 311 311 312 312 313 313 313 314 314 311 305 301 300 299 299 299 299 299 297 296 296 296 296 296 296 296
294 295 296 297 297 298 298 298 299 301 302 303 304 305 306 305 303 304 307 306 304 303 301 299 299 299 300 301 303 302 300 299 299 299 300 300 299 299 299 300 300 301 301 302 302 304 305 305 306 307 307 308 308 309 310 310 310 310 310 311 311 311 311 311 311 310 308 309 310 309 305 302 300 299 298 298 298 298 299 298 297 295 294 294 295 295 295 295
Wind_Speed
13 13 13 13 13 13 13 13 12 12 11 11 11 11 12 12 12 12 12 13 13 13 13 14 15 15 12 9 7 7 8 8 8 8 10 12 11 10 9 6 6 9 10 8 8 9 5 3 5 4 3 1 1 1 0 0 2 2 3 2 3 3 4 6 7 6 3 4 5 5 1 5 6 5 2 2 2 4 4 4 5 6 5 3 3 3 4 18
13 13 13 13 14 14 14 14 14 13 12 12 12 12 12 12 13 13 13 13 13 14 14 14 15 16 14 10 9 8 9 8 8 9 12 12 10 10 11 9 8 11 12 11 12 12 8 4 6 5 4 1 1 1 0 1 2 2 3 2 4 6 6 6 7 5 4 4 5 6 3 5 7 4 2 3 8 6 6 6 3 7 10 5 1 3 12 22
13 13 13 13 14 14 14 14 14 14 13 13 12 12 12 12 13 13 13 13 13 14 14 14 15 16 15 11 10 10 9 6 5 7 4 2 3 7 12 13 11 12 13 10 11 13 8 8 11 7 4 0 1 1 1 0 2 2 3 2 6 7 6 6 7 7 7 3 5 8 2 3 7 4 1 3 9 10 10 8 3 7 13 10 4 7 15 20
13 13 14 14 14 13 14 14 15 15 15 14 13 13 12 12 12 13 13 13 14 14 14 14 15 16 14 11 10 10 8 4 3 4 3 3 3 1 10 14 12 13 15 10 8 10 7 8 11 6 4 1 3 1 1 3 3 2 4 5 7 4 4 8 8 9 8 3 4 5 3 4 6 3 2 3 7 14 11 8 11 12 13 12 6 9 15 17
13 14 14 14 13 13 14 14 15 15 15 15 14 13 13 12 12 12 13 13 13 13 14 14 14 16 14 10 8 8 6 4 2 4 3 2 5 3 6 12 14 14 15 11 7 9 7 9 8 4 3 2 1 2 3 6 4 2 5 8 7 5 4 9 7 7 5 2 3 4 5 6 4 2 5 6 6 15 10 7 13 14 13 11 8 10 12 13
14 14 14 14 14 14 14 14 15 15 15 15 15 14 14 13 13 12 12 12 12 12 12 13 13 15 13 8 6 5 3 1 4 2 4 6 5 3 4 10 14 14 15 12 7 9 7 6 5 2 2 1 3 5 5 4 4 3 6 6 7 7 7 7 3 5 2 1 5 4 5 4 4 7 5 9 13 19 13 5 10 11 11 9 7 10 11 13
15 15 14 14 15 15 14 14 14 15 15 15 15 15 14 14 14 13 13 13 13 12 12 12 12 12 10 6 4 4 3 5 9 7 9 8 6 4 6 11 14 14 15 14 9 8 5 5 4 4 4 1 4 6 5 2 3 5 6 5 7 8 10 10 6 5 3 6 8 3 5 5 7 8 2 7 16 21 16 6 8 10 9 7 7 10 13 15
15 15 15 15 15 14 14 14 14 15 15 15 15 14 14 14 14 14 14 14 13 13 12 11 12 11 9 4 2 4 1 8 13 11 10 8 6 5 7 11 14 16 16 17 14 9 5 6 6 4 3 4 4 5 4 2 1 6 8 5 4 5 9 10 7 7 6 8 6 2 8 12 11 4 5 15 22 20 14 9 10 9 8 7 8 11 13 13
14 14 14 15 14 13 13 13 14 14 15 15 15 14 14 14 13 14 14 14 14 13 13 12 11 10 7 1 3 3 5 7 9 10 8 7 7 6 8 11 14 17 15 16 15 10 7 7 8 5 4 4 4 4 3 3 4 7 8 5 4 6 8 8 7 7 7 6 4 3 12 15 7 1 9 20 22 18 10 8 9 7 8 9 9 11 11 13
13 14 15 15 14 14 14 14 14 15 15 14 14 14 14 14 13 13 13 14 15 14 13 12 10 8 5 1 2 4 7 6 8 9 9 9 9 8 11 12 13 17 14 10 12 12 7 7 7 5 3 2 4 3 3 5 4 5 5 6 7 8 9 6 6 7 5 5 7 8 15 15 3 3 10 18 13 7 7 8 7 4 9 10 9 10 10 12
13 14 14 15 14 14 15 15 15 15 15 15 15 14 14 14 14 14 14 14 15 13 13 12 9 7 5 2 3 6 9 8 10 10 11 12 12 11 12 13 13 17 14 7 10 14 9 6 5 5 1 2 3 2 3 5 2 1 1 7 9 6 10 9 7 6 4 5 8 11 12 12 3 3 13 20 10 0 6 12 10 6 9 9 9 10 8 10
13 13 14 14 14 15 15 15 15 15 16 16 16 16 15 15 14 14 15 15 15 13 12 11 8 6 3 1 6 14 16 15 15 15 15 15 13 12 12 14 13 14 14 8 6 11 10 6 4 4 3 2 1 1 4 3 1 2 3 6 12 7 11 14 7 5 7 4 6 9 5 8 5 10 18 20 12 3 6 12 14 11 10 9 9 9 8 11
12 12 13 14 14 15 15 15 15 16 16 16 17 17 16 16 15 15 16 15 15 14 12 9 7 5 3 2 8 15 21 21 21 20 20 18 15 13 13 13 12 11 12 8 4 3 6 7 5 4 3 2 3 2 0 3 3 5 2 2 9 8 10 10 3 2 4 4 6 8 4 8 10 17 19 15 10 6 7 11 13 12 10 8 8 8 9 11
11 12 13 13 14 14 15 15 16 17 17 18 18 18 18 17 16 15 15 16 15 13 10 6 4 5 4 6 8 9 15 19 21 23 22 20 15 12 11 12 11 10 9 7 4 1 2 5 5 2 1 2 3 4 3 5 4 4 3 1 3 3 8 7 5 2 3 4 7 7 5 10 12 18 16 9 7 6 8 12 12 11 11 9 8 8 10 11
12 12 12 12 13 14 16 17 17 17 18 19 19 19 18 17 17 16 15 16 14 11 7 3 6 6 2 8 10 8 13 15 19 24 23 20 16 10 8 10 9 7 7 5 4 3 4 5 4 2 3 1 1 4 4 4 4 2 2 4 2 2 7 12 6 5 8 5 5 6 5 9 12 17 14 6 5 7 9 13 12 12 12 10 9 8 10 11
10 10 10 11 12 14 17 18 18 17 19 20 19 18 18 18 17 15 15 13 11 8 4 3 8 7 1 5 6 6 10 12 15 18 18 19 17 10 7 8 6 4 4 4 4 5 6 5 2 2 1 3 1 1 3 4 5 2 1 5 5 4 4 9 10 7 8 3 2 7 6 6 9 13 12 5 4 7 8 12 12 13 12 10 9 9 10 11
8 8 9 10 12 14 17 19 17 17 22 21 20 19 16 14 13 10 8 5 2 5 6 3 6 5 2 5 5 6 9 13 14 12 13 17 16 12 8 6 5 7 7 5 6 5 2 2 1 0 1 2 2 4 3 3 6 3 1 4 5 7 5 4 9 7 3 5 5 8 8 10 12 12 12 8 5 5 7 11 12 11 12 10 8 10 12 11
6 7 8 9 12 14 18 19 16 19 24 21 20 18 10 6 4 2 4 8 9 8 5 2 4 3 5 6 6 6 5 7 8 7 9 12 12 12 8 5 6 9 8 4 2 3 1 2 2 1 2 2 2 5 3 7 8 7 5 5 4 5 7 7 9 6 3 5 6 4 8 14 16 13 14 14 11 9 10 12 13 12 13 13 11 12 14 13
7 7 8 9 12 13 17 19 17 20 24 22 18 10 3 6 6 8 9 10 8 5 1 2 5 3 4 7 7 6 4 3 4 4 6 8 10 10 7 6 7 7 5 1 1 3 2 3 4 2 4 7 7 7 10 14 14 12 7 6 6 6 7 8 11 9 5 9 8 7 13 16 15 15 15 16 13 13 14 13 13 13 13 14 13 14 15 14
8 8 9 10 12 13 17 18 17 20 23 22 18 5 2 5 3 3 2 1 4 5 3 5 8 4 4 5 3 4 4 4 3 2 7 9 11 11 5 4 6 4 3 5 3 2 3 3 3 6 11 13 12 13 16 17 11 7 4 6 8 8 10 10 12 12 4 5 10 10 15 17 14 15 15 15 13 13 17 17 15 14 13 13 14 17 17 16
10 10 10 11 12 13 16 17 17 19 19 18 16 6 3 1 1 3 4 4 10 11 8 10 11 9 12 9 3 3 1 2 2 3 7 9 12 10 1 2 5 2 3 4 2 0 2 6 8 13 17 13 11 12 13 10 6 6 6 8 8 7 13 13 13 16 4 2 10 10 15 19 16 15 14 14 13 14 18 19 18 17 15 13 15 20 19 15
11 11 11 11 12 13 15 17 16 18 17 16 15 7 4 1 1 1 1 4 10 9 10 12 9 10 18 18 9 1 2 3 3 1 8 8 6 5 2 4 5 3 2 4 1 2 3 6 12 17 13 6 6 5 4 6 6 7 5 6 8 6 10 12 11 14 4 2 8 9 14 18 14 15 13 14 16 15 16 19 20 18 15 15 17 19 18 16
12 11 11 11 12 13 14 16 14 16 16 13 12 6 2 1 2 1 1 2 8 6 6 8 6 7 12 15 9 4 3 7 5 4 10 10 2 3 4 4 4 2 3 6 7 7 5 6 13 15 8 4 8 5 3 4 5 6 6 6 8 5 7 9 6 7 4 3 7 9 13 14 11 14 13 15 19 15 15 19 19 17 16 19 20 17 17 17
12 12 11 11 12 12 13 15 11 13 14 8 8 6 2 1 2 1 1 1 4 6 6 6 4 5 7 6 4 7 5 5 3 4 12 14 4 2 4 5 5 3 6 11 12 10 9 7 8 8 7 8 10 7 5 6 7 9 9 8 10 10 12 12 5 6 6 4 6 8 14 12 9 12 12 12 14 13 14 16 16 17 19 19 17 16 16 18
14 13 12 11 12 11 13 13 8 11 12 4 6 8 4 1 1 1 1 1 3 6 5 3 3 3 4 3 5 7 4 3 3 3 11 14 7 3 3 3 4 5 9 9 8 9 11 6 4 5 7 9 9 8 8 8 9 10 8 12 17 16 13 12 8 7 6 5 4 3 8 10 5 10 10 8 7 10 10 12 16 19 19 15 13 15 16 16
14 14 13 12 12 11 11 7 6 11 10 3 6 9 4 2 1 2 2 3 4 5 2 1 2 1 2 3 3 5 4 3 4 1 6 7 5 4 2 1 1 4 7 5 4 5 6 4 6 8 8 8 7 7 8 11 9 10 6 12 17 13 10 11 8 4 2 4 3 2 1 10 6 6 10 9 7 10 10 11 16 18 15 11 11 14 13 12
14 14 14 13 12 10 6 3 6 10 6 2 7 8 4 2 0 2 1 4 5 3 2 1 0 2 2 2 1 4 3 4 3 4 3 1 1 1 1 3 2 2 3 2 3 3 4 3 4 7 7 6 6 7 9 12 8 7 5 9 11 9 9 8 5 4 4 3 3 2 4 6 13 7 10 11 10 11 12 14 16 15 13 13 14 14 13 13
14 15 15 15 13 10 7 6 7 7 3 3 8 8 5 3 0 1 3 3 5 1 2 2 1 2 0 1 3 4 2 2 3 2 2 3 1 1 1 5 5 4 2 4 5 4 4 4 6 6 5 5 8 8 7 12 8 6 3 5 7 7 6 5 5 5 1 4 4 4 5 2 13 8 4 5 8 10 14 16 15 14 14 15 14 14 14 13
14 13 14 16 13 10 10 10 8 5 4 3 6 8 5 2 1 4 3 2 3 1 1 1 1 1 2 2 2 3 1 1 2 3 3 2 0 3 2 5 5 4 4 5 8 6 1 4 6 8 5 6 8 5 7 13 9 4 6 5 4 4 3 5 4 3 2 5 5 6 6 2 12 9 3 2 3 8 12 12 12 12 13 13 12 13 13 11
16 12 13 14 12 9 8 11 13 11 8 6 5 7 4 2 1 2 3 4 1 1 1 1 0 0 3 4 1 3 1 2 0 1 3 1 2 4 1 3 4 2 4 2 8 9 4 1 3 5 4 5 3 1 3 8 5 1 5 5 6 4 4 4 1 3 2 7 6 10 12 6 7 6 4 3 4 7 8 6 8 10 11 13 12 12 13 10
17 14 13 14 14 11 7 7 12 11 10 7 3 4 3 1 2 2 7 2 2 2 0 1 1 2 4 4 2 2 1 2 0 2 1 1 2 4 1 1 2 2 3 4 6 7 4 1 2 3 2 3 4 2 2 1 1 2 3 3 3 4 4 5 4 3 2 8 5 9 12 9 8 6 1 4 7 6 7 6 8 10 11 12 11 10 11 9
12 12 13 14 16 15 10 5 5 6 9 6 0 2 1 1 1 6 5 3 2 2 1 1 1 2 3 2 1 2 2 2 1 4 3 3 2 2 3 4 3 1 4 3 4 6 3 5 4 2 2 5 5 2 4 5 2 3 3 2 0 4 3 3 3 1 3 8 4 6 7 5 11 9 4 8 10 9 8 8 9 9 10 11 11 9 8 8
9 10 11 14 16 18 16 11 6 5 7 6 1 3 4 2 6 4 2 2 2 1 1 1 0 2 3 1 3 4 2 3 3 3 3 4 2 3 4 5 5 2 5 2 2 5 4 5 1 1 4 5 8 5 3 2 4 6 5 5 4 2 2 4 4 2 5 7 2 3 5 4 10 7 7 12 13 10 7 8 11 10 10 11 10 8 9 10
9 10 11 13 15 19 19 16 13 9 8 6 2 3 3 7 7 2 3 6 3 3 1 2 2 1 2 2 4 4 2 4 3 4 2 3 2 3 4 5 6 3 2 1 1 2 4 7 3 6 3 5 10 10 8 4 4 6 5 5 5 5 4 4 4 4 7 5 2 1 4 5 5 3 6 10 9 7 6 7 8 8 9 9 8 9 10 11
8 9 11 12 15 18 19 20 17 13 10 6 3 2 5 9 5 1 4 5 2 3 4 1 1 1 3 4 4 3 5 5 1 4 3 3 3 4 3 4 7 6 3 2 2 3 4 9 6 3 1 7 9 6 4 5 1 3 3 4 4 5 4 3 6 6 5 4 3 3 4 5 5 5 7 7 8 8 8 8 6 8 9 6 7 10 9 9
9 8 9 11 15 17 19 21 19 16 13 6 2 5 8 7 4 3 4 3 3 3 2 4 2 3 4 3 2 3 3 3 1 2 2 3 3 4 4 4 7 10 7 5 3 2 4 7 4 1 2 4 5 3 1 4 3 1 3 3 4 2 5 3 6 3 1 4 6 6 8 6 5 9 7 3 4 6 8 9 7 8 9 7 7 9 8 9
9 8 7 10 15 15 17 21 22 19 12 4 4 8 6 5 5 4 3 2 2 4 3 3 3 3 4 3 3 3 1 1 2 2 3 3 3 4 5 4 5 12 12 7 3 3 4 8 6 2 2 3 2 1 2 1 3 4 3 5 2 1 2 2 2 2 2 7 7 7 14 11 6 9 6 6 9 9 7 7 6 6 7 6 7 8 8 9
7 6 8 14 18 16 15 21 24 18 7 3 9 11 5 3 4 4 3 2 0 1 3 5 4 3 4 4 4 3 3 3 3 3 3 2 3 5 6 4 3 9 11 6 1 1 1 5 7 2 2 3 3 2 3 4 2 4 3 2 2 1 3 2 2 2 5 9 5 6 13 11 7 10 9 7 9 9 7 7 6 7 6 6 7 8 9 8
4 3 5 10 15 17 18 22 21 12 3 5 10 10 5 4 4 3 4 3 0 1 2 5 4 3 4 5 4 2 4 5 4 3 3 3 4 4 4 3 2 4 6 5 4 2 1 2 5 1 3 1 4 1 2 3 2 1 2 3 1 3 4 3 3 2 4 8 7 7 9 7 7 9 9 8 8 7 7 7 6 7 6 6 7 8 9 8
2 2 4 4 7 16 22 21 14 5 4 6 8 7 3 3 4 3 5 5 2 1 3 5 4 4 6 6 6 4 3 4 4 4 4 3 4 4 2 2 3 3 2 4 5 3 2 2 5 2 1 2 2 3 5 4 2 2 2 3 3 3 1 1 2 2 3 7 7 7 8 7 5 6 7 8 6 5 6 5 6 7 8 8 7 7 8 7
2 2 4 3 5 17 21 13 5 4 5 4 7 7 4 2 3 3 4 4 4 3 2 3 5 5 6 6 6 3 2 3 5 5 4 4 5 5 3 4 5 4 2 3 2 2 1 2 2 2 4 6 7 6 7 6 5 4 4 4 5 5 3 5 6 5 4 6 7 8 9 6 3 7 11 9 6 5 6 6 6 8 10 12 11 10 10 9
3 3 2 3 11 23 17 5 4 4 4 4 4 5 3 3 3 3 4 4 4 3 1 3 6 5 4 6 6 3 3 3 5 5 5 6 7 6 4 4 6 4 2 1 4 4 2 2 2 5 7 10 12 9 6 7 6 5 5 5 6 6 5 7 9 7 5 5 5 7 10 6 5 10 16 15 13 11 7 7 8 10 11 13 15 15 14 14
3 3 4 2 18 24 10 3 6 4 4 3 2 2 2 2 3 4 4 4 4 3 3 3 5 6 6 6 6 5 5 5 6 7 6 5 7 8 8 6 4 4 1 3 4 3 3 3 3 7 6 6 10 12 9 6 5 5 6 8 10 10 10 10 8 6 6 6 5 8 9 4 5 9 13 15 17 17 12 11 11 10 9 9 11 13 12 12
2 2 4 4 19 19 5 4 8 6 6 4 4 6 3 2 4 6 5 4 4 4 4 4 4 6 6 6 6 6 5 5 7 9 8 5 6 8 9 10 8 4 4 5 3 3 3 3 4 5 5 5 6 8 8 5 5 5 8 10 11 13 14 12 7 3 6 9 10 11 10 5 5 7 10 14 18 18 18 16 12 8 8 8 9 9 10 11
3 2 2 4 11 10 3 4 5 5 7 8 8 8 6 4 5 7 7 5 4 4 3 3 3 3 4 4 4 5 5 6 6 6 5 4 4 4 4 7 8 7 5 3 1 1 3 4 5 5 7 9 10 8 5 2 3 3 5 9 12 13 15 12 7 6 8 10 12 12 10 9 8 8 10 15 18 20 21 20 15 11 10 10 9 7 7 7
1 2 1 2 4 4 3 4 4 4 5 8 8 7 10 12 7 4 7 6 7 7 4 3 2 2 2 4 6 7 8 8 7 5 5 5 3 2 5 7 4 3 5 5 5 3 1 3 6 10 12 12 13 12 8 4 3 4 5 9 10 10 12 10 7 9 10 10 12 13 13 14 12 11 14 18 19 20 20 21 20 15 10 9 8 6 7 8
1 2 2 1 2 3 5 5 5 6 5 5 4 4 10 13 8 4 6 5 5 6 4 3 5 6 6 6 7 8 8 9 9 9 9 6 3 3 6 6 4 6 6 4 3 2 1 3 7 13 15 14 15 17 16 14 13 12 12 12 11 10 11 10 11 13 12 12 13 12 13 16 13 11 15 19 20 19 19 20 20 15 11 9 8 10 12 11
1 1 2 1 2 3 4 4 4 6 8 7 4 4 9 11 8 6 4 2 1 3 3 3 5 7 6 6 7 5 5 7 7 6 5 2 4 6 7 3 2 6 7 4 3 1 2 5 7 12 15 15 16 18 18 17 16 15 15 16 16 16 16 16 18 18 14 14 15 13 14 18 15 13 16 18 17 17 15 14 14 16 16 14 13 13 13 13
1 1 3 3 1 2 3 3 4 4 7 9 5 6 11 12 12 8 2 1 2 2 5 6 3 1 1 2 2 2 2 4 5 2 2 4 3 3 4 3 1 5 7 6 4 1 3 4 5 9 13 13 14 16 17 18 18 17 16 15 15 17 18 19 20 19 18 19 19 18 21 23 17 14 13 11 10 10 11 12 14 16 14 14 14 14 13 13
1 1 2 3 1 3 3 3 3 4 3 5 4 6 7 9 10 7 2 3 4 3 5 5 3 4 3 1 1 3 2 1 2 1 2 3 3 1 1 3 3 4 5 5 3 2 3 3 5 6 8 10 12 13 14 15 15 16 16 14 15 16 18 18 17 17 18 21 22 23 24 18 9 9 8 9 11 11 12 13 12 12 12 13 13 13 12 12
1 2 2 3 3 3 1 1 2 3 3 4 4 5 5 6 6 4 2 2 2 0 1 2 2 2 2 3 3 3 2 2 1 3 1 1 2 2 1 2 5 7 6 3 2 3 3 4 6 8 8 9 11 13 14 13 13 14 15 16 18 18 16 16 16 16 17 19 21 21 16 7 7 10 9 10 12 12 11 10 9 10 12 12 12 12 12 12
1 3 2 1 3 4 1 2 2 3 3 2 2 3 2 1 3 4 2 2 5 5 6 4 3 2 1 3 2 3 4 2 3 5 4 5 7 7 6 7 7 7 6 5 3 3 4 5 5 6 7 8 9 13 13 11 11 12 12 13 16 17 16 16 15 13 10 10 10 9 5 3 6 9 11 13 14 13 11 7 6 9 11 12 12 11 11 11
Wind_Direction
352 352 351 352 351 350 350 349 350 350 352 350 349 348 346 347 344 344 343 342 342 342 347 346 346 347 344 340 332 319 308 298 285 257 238 260 266 246 235 221 198 201 203 196 185 174 159 176 184 160 132 103 13 5 95 75 103 70 93 145 243 206 203 194 193 203 195 266 275 311 329 193 272 295 305 339 268 257 255 262 274 282 268 227 275 312 156 163
347 346 346 348 347 348 347 344 344 344 346 345 346 345 344 344 341 341 339 339 339 337 342 344 345 346 344 341 331 324 315 303 288 262 259 275 271 245 228 213 202 203 197 193 196 179 157 199 184 129 83 94 318 6 18 269 138 128 129 186 234 207 215 201 193 207 207 247 271 295 292 193 239 268 13 302 275 278 267 270 295 281 270 262 262 151 161 164
342 342 342 344 345 346 342 340 340 338 340 340 341 342 342 342 338 337 335 335 336 335 338 340 342 344 344 339 335 334 321 322 303 265 266 324 266 236 220 210 205 203 202 202 205 193 187 195 170 126 69 25 281 32 53 285 189 173 143 226 244 217 235 237 212 223 229 249 294 291 285 185 241 246 113 268 280 279 254 246 237 249 256 247 204 157 167 169
338 339 339 341 342 341 338 337 336 335 335 335 336 338 338 338 337 333 331 330 331 331 332 336 338 341 343 337 340 336 330 353 299 225 146 69 23 272 217 210 205 202 204 207 208 204 191 154 150 117 85 228 307 28 177 222 204 175 161 214 237 197 239 247 217 231 248 236 249 273 331 293 261 205 195 249 297 286 259 215 214 225 239 236 197 178 178 177
334 335 337 338 338 335 334 334 334 333 332 332 332 333 333 333 332 329 328 325 325 326 327 331 332 337 340 337 344 344 2 27 252 190 163 325 350 335 215 202 201 201 202 209 203 187 169 128 120 73 88 198 295 73 232 221 153 162 214 226 229 171 232 253 212 224 240 185 226 277 301 283 271 222 215 205 242 270 264 185 209 221 229 228 191 184 184 185
332 333 335 336 334 330 330 331 331 331 329 329 329 329 329 327 327 325 323 321 321 320 320 322 325 332 334 332 344 356 35 307 258 241 283 299 318 299 200 191 196 199 203 210 191 168 166 123 116 124 136 202 198 190 239 222 150 217 248 246 237 205 230 262 217 211 203 216 262 262 277 292 308 287 223 194 226 253 262 189 203 224 228 225 175 170 185 194
331 331 333 337 335 327 327 328 328 329 327 326 326 325 324 323 323 320 319 317 316 316 314 316 317 324 331 329 328 7 85 250 274 291 292 290 292 267 203 194 196 202 205 202 184 167 156 127 161 170 135 232 215 210 232 197 170 229 255 255 245 224 230 255 258 253 259 258 257 270 317 294 265 281 251 222 243 253 265 253 221 235 231 210 165 178 194 198
328 328 333 338 336 328 326 326 327 327 325 324 321 322 321 320 319 317 316 312 310 311 309 310 311 317 322 320 321 357 7 256 276 291 292 287 279 254 212 200 199 206 206 204 194 176 153 150 188 170 141 239 201 192 206 151 199 225 235 244 248 242 241 256 267 265 260 252 253 294 292 264 240 264 299 263 262 264 268 266 246 241 231 204 194 201 201 205
326 328 334 338 338 335 331 331 331 327 324 321 317 318 318 318 318 316 312 308 307 306 304 304 305 311 311 332 86 343 273 253 282 295 294 288 277 250 217 204 204 207 207 215 207 183 171 184 207 194 196 224 174 191 196 178 243 221 224 248 256 267 267 266 266 245 237 242 207 227 270 268 248 225 275 261 260 274 282 269 258 241 237 223 214 212 204 211
328 333 337 337 341 341 338 338 335 330 327 321 317 316 315 316 316 313 309 305 303 302 300 295 292 296 290 251 100 281 265 261 287 291 288 285 271 246 223 215 211 208 206 219 213 197 192 204 205 177 181 189 174 208 167 174 216 199 218 265 255 269 280 249 244 236 222 243 192 198 260 272 285 133 264 263 248 279 312 290 283 246 243 236 224 222 211 215
333 337 339 342 348 345 343 341 335 330 326 321 317 314 312 313 313 310 307 302 300 301 298 291 285 277 261 183 176 251 267 271 280 281 282 280 266 250 236 228 221 212 208 211 215 213 222 225 168 126 191 207 189 234 226 203 199 199 265 296 279 295 298 257 241 241 205 252 201 189 254 280 332 177 247 264 251 327 318 292 289 261 248 245 233 231 218 221
333 336 343 350 352 349 347 341 335 330 324 320 314 310 309 308 308 305 301 297 298 300 295 291 281 256 242 186 218 246 262 267 270 274 274 272 260 248 238 230 229 222 216 217 236 230 231 234 155 155 232 199 230 289 247 230 43 307 30 322 295 336 309 277 269 233 182 221 190 159 261 284 260 235 243 258 262 281 292 281 282 271 255 248 240 237 228 231
332 339 349 351 351 352 349 344 339 333 327 321 313 310 307 304 304 298 294 292 292 297 295 290 272 235 210 257 242 249 259 259 261 265 264 261 253 243 232 225 227 226 223 227 260 253 226 226 191 202 226 163 260 259 189 31 22 294 27 347 297 340 306 282 31 63 169 191 172 145 266 268 246 251 252 258 268 282 277 268 272 275 270 256 242 240 240 239
338 345 349 348 351 353 351 349 344 337 332 325 320 316 308 302 298 290 287 284 287 294 293 286 241 187 169 255 264 258 254 252 252 253 253 251 241 233 229 221 221 219 223 227 230 186 177 200 174 174 257 170 253 299 343 4 9 300 313 285 303 315 282 298 62 79 253 214 166 159 248 258 259 263 261 263 260 249 257 263 265 268 272 270 253 244 249 245
341 345 347 349 353 354 354 352 346 341 337 332 329 323 313 304 294 284 278 275 282 283 274 246 183 155 102 273 270 265 251 248 249 248 249 245 230 219 222 214 213 213 214 215 202 177 156 157 143 161 263 260 318 326 333 342 354 7 287 281 312 215 271 306 308 203 234 263 139 160 236 258 263 268 270 273 230 215 237 258 264 265 266 270 270 259 256 257
339 345 349 353 356 357 358 354 348 346 342 339 335 327 317 306 293 282 275 273 278 257 215 184 177 156 32 273 278 277 249 241 249 251 245 239 230 216 193 187 187 171 174 173 155 160 154 130 114 157 235 290 248 107 35 352 319 343 227 254 269 250 272 313 301 234 213 246 164 202 227 262 264 265 274 279 216 212 235 258 263 266 267 265 271 270 264 269
340 347 351 355 357 357 358 354 350 349 346 344 340 332 324 311 297 288 276 269 252 171 144 157 171 157 273 268 289 281 245 238 247 251 237 230 225 207 172 143 134 126 118 117 138 146 131 102 112 33 30 280 159 100 51 300 277 290 229 236 247 250 259 295 295 288 203 187 210 230 235 248 258 265 283 293 265 232 238 259 262 263 271 267 264 269 267 269
335 339 347 354 354 354 356 353 349 350 348 348 344 337 340 351 356 52 124 121 109 113 94 48 135 145 268 253 256 261 249 241 238 235 223 212 201 193 170 130 122 120 101 66 133 148 28 35 92 18 333 263 150 114 182 233 240 244 232 243 257 246 249 256 267 292 325 241 217 237 252 251 261 271 281 283 278 268 251 256 264 263 268 269 266 266 265 267
320 326 337 345 349 349 352 353 350 350 350 353 351 343 36 57 71 94 109 113 106 115 149 217 167 160 252 247 251 261 266 219 200 208 190 173 172 171 146 119 109 107 109 75 250 182 124 56 77 115 238 237 207 170 202 224 231 236 232 236 253 259 251 245 255 263 289 282 261 249 257 258 263 268 270 273 274 273 266 259 262 263 264 267 267 265 264 264
310 318 328 334 341 342 347 352 351 353 355 358 358 1 86 38 44 53 42 141 209 204 191 210 208 228 269 270 248 231 246 209 199 179 156 159 156 146 114 77 78 79 141 162 204 215 138 161 168 191 221 225 211 198 214 230 241 253 248 244 248 260 264 256 264 267 249 278 267 249 263 267 264 264 264 269 272 272 272 268 262 261 261 264 263 263 264 261
305 310 319 324 332 336 342 348 351 356 1 7 11 32 120 51 11 320 314 283 255 237 241 236 219 240 259 261 235 171 255 237 213 118 155 164 146 143 159 101 122 172 198 150 152 45 148 192 206 215 224 223 215 214 223 239 264 264 247 262 261 247 262 261 263 271 250 220 266 260 271 272 264 265 264 267 267 260 264 268 268 265 260 261 263 264 264 261
301 303 311 316 325 331 336 344 351 356 3 20 33 66 142 181 180 273 294 290 282 246 240 247 227 244 254 255 258 188 11 274 272 119 159 151 133 177 212 125 158 202 159 120 131 243 213 221 225 226 231 244 249 231 216 231 239 245 242 266 266 247 270 268 251 266 267 191 273 274 268 270 267 265 258 256 257 249 251 258 263 266 264 262 259 262 265 265
294 297 305 308 320 324 330 340 348 356 4 25 42 69 136 306 194 152 90 253 291 269 235 242 222 231 251 261 257 190 233 249 263 258 171 146 127 199 156 140 171 158 146 182 209 220 226 236 233 233 232 241 258 248 203 250 239 220 222 247 261 250 262 264 244 280 298 218 270 285 276 273 266 263 254 246 250 249 248 252 257 261 259 257 255 259 268 268
286 290 296 300 311 315 323 333 340 357 2 19 33 29 16 331 189 127 8 236 283 280 247 222 201 217 236 265 222 175 215 228 228 245 175 155 139 153 163 161 152 159 202 208 218 232 244 241 227 224 212 209 238 246 223 255 260 227 213 224 251 247 242 252 278 338 322 268 273 293 292 282 237 239 250 242 246 249 248 251 258 259 253 254 259 263 264 263
278 281 284 288 298 303 315 324 335 355 350 349 13 7 16 6 189 124 20 339 290 289 281 214 186 230 215 166 161 170 182 216 235 226 174 166 151 140 196 172 154 212 216 214 231 252 257 241 165 175 204 202 217 235 214 212 250 255 216 210 236 247 250 261 290 340 337 301 303 327 306 295 208 198 237 248 244 247 245 246 251 255 255 258 265 263 258 258
267 270 273 276 281 290 308 322 333 344 341 319 350 356 3 352 269 180 84 29 293 274 298 208 174 194 183 140 171 159 130 256 290 60 155 175 165 136 169 193 197 227 202 197 233 252 258 232 181 200 210 194 200 239 221 196 235 271 227 207 228 243 253 259 274 310 275 259 296 69 269 288 280 198 219 235 241 247 246 242 245 251 258 260 259 260 261 260
270 267 269 272 275 279 291 309 314 328 336 321 345 352 355 7 268 214 45 8 296 239 134 263 158 117 178 183 189 141 157 273 344 48 82 121 227 122 158 214 225 248 173 139 287 242 214 225 219 217 204 177 193 242 220 180 205 266 227 196 208 221 235 233 223 223 233 273 296 155 145 273 286 249 195 210 227 244 251 247 249 254 258 258 256 258 262 260
275 276 275 274 274 267 256 271 301 317 307 313 345 346 347 1 285 101 50 323 285 123 104 274 146 97 323 78 71 104 182 289 57 328 337 74 192 82 203 225 193 222 182 141 253 250 156 206 219 191 173 185 210 227 186 157 195 252 173 160 177 191 205 166 165 199 233 339 290 210 138 222 279 270 157 203 227 241 253 248 249 255 256 257 257 257 258 261
270 275 277 272 268 259 248 256 267 269 268 299 340 336 336 315 300 70 79 251 278 60 71 322 127 347 357 70 38 39 4 346 98 273 324 75 129 81 180 222 170 227 247 176 237 266 184 218 199 163 167 214 224 226 166 163 200 225 117 97 79 88 89 107 150 156 81 313 261 190 156 192 279 280 97 78 236 236 249 250 252 255 256 260 262 265 265 266
261 264 273 264 247 237 230 244 254 251 256 275 313 327 324 274 45 72 226 239 334 322 210 64 160 313 68 101 318 327 302 279 64 357 4 65 351 32 157 209 119 189 269 247 253 257 245 222 143 167 193 203 187 76 179 181 193 149 101 59 29 26 32 59 58 89 80 282 244 180 179 180 277 284 135 159 232 232 240 254 265 263 261 263 262 264 267 264
255 255 263 253 237 228 206 236 261 248 236 249 300 337 320 338 75 192 234 238 16 292 155 59 324 65 93 129 223 292 215 267 290 114 127 110 27 28 40 247 86 72 318 299 275 269 258 209 199 222 195 141 120 89 334 354 93 99 89 60 14 328 5 29 351 55 145 263 242 180 178 175 234 261 199 264 275 259 236 236 250 256 263 268 265 263 269 274
258 253 253 252 244 233 217 229 267 231 215 217 307 7 49 31 237 215 245 353 354 265 133 189 257 116 114 115 216 222 182 243 192 145 165 146 139 174 195 203 174 292 300 259 281 310 277 220 224 265 202 164 151 166 332 356 71 126 117 124 323 310 342 353 307 95 205 255 247 171 165 196 244 255 267 270 271 257 237 230 240 248 262 271 273 277 290 300
271 263 253 251 244 233 231 236 238 219 200 185 170 38 88 210 246 204 203 292 247 242 88 119 357 143 139 87 254 217 185 222 189 162 170 139 160 237 241 216 174 215 264 222 324 319 286 266 193 138 259 189 150 173 238 268 178 160 157 162 166 207 251 259 264 274 260 266 275 164 173 245 277 272 231 236 248 254 244 237 241 247 260 272 281 296 302 296
272 266 257 254 246 240 239 236 232 225 195 167 133 60 130 229 246 132 179 232 250 325 357 116 67 41 175 231 244 202 210 249 172 151 170 126 142 257 256 232 190 179 242 235 306 237 253 284 212 169 238 179 172 202 204 161 164 185 168 147 172 191 194 219 233 248 262 276 317 218 191 229 273 273 220 229 254 277 266 247 253 265 269 279 294 293 286 287
279 266 261 256 245 240 236 231 229 213 182 150 96 146 212 235 248 225 223 228 259 306 305 284 120 295 271 260 259 225 223 251 126 125 176 167 184 211 210 213 192 170 153 204 250 173 213 267 249 202 185 159 180 224 173 123 185 234 130 114 220 207 171 221 243 234 251 291 289 235 223 230 246 269 260 254 270 279 274 275 296 298 289 301 303 286 286 298
289 282 271 251 241 236 229 226 221 198 174 140 124 212 228 235 215 197 213 197 184 189 292 306 210 212 267 266 260 257 220 224 185 129 203 201 211 216 213 221 188 175 173 184 230 219 233 268 267 48 18 172 199 269 148 155 215 212 124 188 242 174 142 223 272 282 303 266 253 242 260 278 299 288 290 338 315 291 286 288 291 289 292 303 292 282 290 294
293 288 264 239 240 235 224 223 211 190 172 150 209 224 229 229 206 198 198 178 176 138 128 256 229 202 242 256 253 242 175 200 199 187 217 217 233 207 201 242 198 184 196 200 222 237 247 277 275 207 263 260 228 312 334 345 140 133 177 220 236 49 123 167 265 316 256 246 246 243 259 279 303 283 302 2 329 306 292 285 290 296 302 300 285 281 279 276
301 289 262 250 245 233 223 217 200 181 164 178 226 233 223 212 221 208 183 162 225 120 155 227 241 223 224 238 251 201 174 208 177 172 215 225 235 194 176 226 208 195 212 201 177 270 211 275 282 245 214 289 12 25 319 334 94 148 216 244 120 211 251 164 175 225 236 248 252 228 246 265 267 264 281 294 283 283 285 292 305 307 308 309 297 291 287 287
293 280 271 261 242 226 214 201 184 171 173 201 225 235 215 215 235 205 188 187 142 128 214 235 241 255 244 235 249 226 199 212 185 188 220 220 238 211 172 219 211 210 224 172 165 253 101 220 262 188 146 337 9 91 212 300 333 152 284 328 77 191 211 193 190 187 229 251 258 238 236 246 247 256 269 256 237 252 280 294 294 282 284 291 289 292 297 300
223 249 262 264 227 211 197 182 167 173 216 211 227 231 196 220 248 239 224 218 206 209 234 233 219 234 252 253 258 260 236 220 208 219 231 222 248 248 195 182 159 182 215 149 173 207 117 215 250 252 275 305 294 206 190 208 212 176 235 263 251 230 221 256 232 180 223 250 255 253 245 239 252 271 262 237 216 231 250 252 264 280 290 285 274 269 275 283
201 234 255 276 203 181 173 165 169 201 212 233 245 237 238 250 242 263 259 226 221 238 225 209 213 228 247 257 257 237 210 222 210 214 232 229 240 248 224 175 157 156 83 86 177 203 147 219 245 291 289 272 254 216 172 172 177 175 201 226 242 242 253 273 255 212 209 240 246 254 256 248 269 292 279 259 239 244 228 220 260 293 297 290 286 279 278 287
214 203 266 296 184 167 158 171 213 196 210 231 240 232 243 260 236 236 244 225 220 243 275 229 223 229 238 251 253 218 197 224 210 210 234 231 223 229 228 178 145 129 82 185 217 211 139 131 214 244 246 254 261 253 204 192 210 231 229 228 245 242 227 245 252 241 238 249 252 259 260 242 218 261 277 279 280 283 261 232 260 280 282 287 294 298 304 308
214 233 329 279 181 169 156 223 211 213 233 235 279 254 215 242 248 236 219 213 214 217 240 237 224 232 235 236 242 222 209 218 207 212 235 239 226 229 230 208 144 97 41 251 231 203 127 110 228 252 255 258 269 275 266 232 211 243 243 223 228 234 231 238 249 257 259 257 260 262 259 233 197 240 266 279 284 289 281 263 262 270 273 277 284 293 301 299
295 289 321 234 189 177 172 220 208 227 234 240 265 246 236 225 232 243 234 212 200 202 221 225 220 235 232 225 229 222 218 228 227 229 229 224 238 243 238 234 226 202 199 214 220 218 208 193 217 253 274 271 268 276 280 256 196 225 243 230 227 231 237 249 261 272 261 246 242 255 259 242 225 247 268 279 283 285 282 277 272 271 276 272 265 270 274 275
331 268 284 257 213 201 219 228 224 231 228 242 248 241 252 249 226 235 236 227 209 196 216 238 229 231 228 232 251 244 231 235 246 254 236 225 262 281 293 276 255 235 232 254 325 302 251 228 219 240 254 259 262 259 257 239 188 216 242 232 230 229 230 242 252 245 247 238 231 245 260 256 254 263 271 275 277 279 282 285 287 283 281 279 271 269 277 294
325 263 250 278 255 245 251 251 248 230 224 237 240 235 240 245 251 224 207 224 231 215 222 254 259 279 236 231 254 258 247 235 234 251 254 256 269 321 355 345 326 300 318 354 34 50 286 257 242 246 248 251 261 265 268 278 261 261 259 237 230 229 228 235 244 245 254 258 247 247 259 264 262 264 269 271 273 278 284 287 287 286 288 292 302 338 5 9
220 262 216 199 260 255 249 247 236 226 223 221 222 228 233 239 255 231 199 220 231 218 231 244 228 231 229 230 246 254 252 242 238 245 252 261 289 327 337 352 13 3 359 13 42 88 208 259 251 254 257 258 266 273 278 280 272 265 267 262 254 251 243 241 247 252 258 266 260 253 260 267 265 259 263 267 270 273 278 284 294 313 344 2 17 30 29 22
223 256 258 279 265 239 242 253 255 243 233 227 229 250 250 248 245 233 226 270 261 196 220 253 242 236 242 252 252 253 255 249 249 252 255 301 353 338 337 347 23 28 32 20 3 86 200 256 251 254 262 262 266 272 273 274 273 267 263 262 260 258 255 252 254 256 256 260 265 270 270 269 267 258 254 260 271 281 292 310 339 5 19 28 33 31 25 17
310 285 294 330 314 271 292 304 323 305 245 238 234 232 247 253 248 242 237 314 299 226 220 236 236 173 13 341 259 234 238 247 259 279 50 31 356 327 332 314 311 57 39 356 334 189 215 260 255 256 267 270 268 272 272 273 274 272 268 264 263 264 262 261 264 266 267 266 268 272 268 264 267 273 274 288 311 328 347 5 21 26 23 24 26 23 19 13
342 327 315 350 313 276 310 299 302 325 283 257 242 220 232 248 251 260 260 215 236 248 230 224 166 123 112 98 201 233 232 242 271 282 57 26 337 349 13 296 304 355 353 332 313 259 250 292 319 302 290 283 276 272 269 266 265 269 272 270 266 266 265 265 268 270 269 268 266 266 264 264 290 327 339 3 8 9 15 16 21 23 19 21 21 16 10 5
262 332 314 319 291 265 299 321 279 279 269 249 243 244 248 252 260 292 309 254 237 166 141 121 81 99 167 185 203 210 179 112 190 246 236 217 254 265 218 261 299 315 313 286 252 280 278 293 317 308 286 277 276 272 272 273 271 268 267 265 262 261 260 259 257 254 258 265 268 271 272 284 357 1 2 13 13 9 10 13 16 18 18 17 14 8 2 357
254 324 305 258 282 276 284 342 296 249 244 245 283 302 275 282 360 355 314 14 63 87 95 81 40 21 321 275 272 151 152 165 210 232 235 223 235 245 236 240 249 257 274 278 262 254 256 269 288 282 277 278 274 273 281 291 286 270 264 265 263 262 264 264 261 262 275 286 279 277 286 324 5 12 7 3 4 360 352 2 27 19 14 14 8 360 353 348